[[{"header":{"parameterUnit":"m.s-1","parameterCategory":1,"la1":30.2991,"la2":30.254,"lo1":-89.0895,"lo2":-89.0444,"dy":0.0017,"dx":0.0017,"nx":28,"ny":28,"refTime":"2024-04-23T21:00:00:Z","depth":0,"parameterNumber":2,"parameterNumberName":"U-component_of_WINDS"},"data":[0,0,0,0,0,0,0,0,0,0,0,0,0,0,0,0,0,0,0,0,0,0,0,0,0,0,0,0,0,0,0,0,0,0,0,0,0,0,0,0,0,0,0,0,0,0,0,0,0,0,0,0,0,0,0,0,0,0,-1.4047,-1.4046,0,-1.3946,-1.3945,-1.3944,-1.384,-1.3838,-1.3837,-1.3836,-1.3728,-1.3727,-1.3725,0,0,0,0,0,0,0,0,0,0,0,0,0,-1.4145,-1.4144,-1.4047,-1.4046,-1.4045,-1.3946,-1.3945,-1.3944,-1.384,-1.3838,-1.3836,-1.3835,-1.3729,-1.3727,-1.3725,0,0,0,0,0,0,0,0,0,0,0,0,0,-1.4079,-1.4144,-1.4047,-1.3981,-1.3974,-1.3947,-1.3945,-1.3943,-1.384,-1.3838,-1.3836,-1.3834,-1.3729,-1.3727,-1.3725,-1.3753,0,0,-1.3718,-1.3717,0,0,0,0,0,0,0,0,-1.4083,-1.4076,-1.3992,-1.3986,-1.3978,-1.3903,-1.394,-1.3879,-1.3841,-1.3891,-1.3835,-1.3833,-1.3788,-1.3781,-1.3766,-1.3748,-1.3744,-1.3718,-1.3716,-1.3715,-1.3715,0,0,0,0,0,0,0,-1.4088,-1.408,-1.4007,-1.3991,-1.3982,-1.3955,-1.3943,-1.3928,-1.3853,-1.3886,-1.3879,-1.3868,-1.3784,-1.3769,-1.3763,-1.3742,-1.3718,-1.3716,-1.3714,-1.3713,-1.3741,-1.3743,0,0,0,0,0,0,-1.4103,-1.4084,-1.401,-1.4004,-1.4026,-1.3955,-1.3942,-1.3929,-1.3852,-1.3839,-1.387,-1.3864,-1.3774,-1.3766,-1.3759,-1.3786,-1.3715,-1.3713,-1.3712,-1.3739,-1.3742,-1.3744,0,0,0,0,0,0,-1.4106,-1.4098,-1.4014,-1.4042,-1.4029,-1.3956,-1.3942,-1.3929,-1.3914,-1.384,-1.3826,-1.3869,-1.3772,-1.3762,-1.3756,-1.3781,-1.3712,-1.371,-1.3736,-1.374,-1.3743,-1.3843,0,0,0,0,0,0,-1.4109,-1.4099,-1.411,-1.4043,-1.4028,-1.4014,-1.3944,-1.3928,-1.391,-1.3901,-1.3836,-1.3823,-1.3769,-1.376,-1.3753,-1.3777,-1.3708,-1.3734,-1.3738,-1.3742,-1.3837,-1.3849,-1.3859,0,0,0,0,0,-1.4113,-1.4142,-1.4111,-1.4103,-1.4041,-1.4016,-1.4007,-1.3947,-1.3913,-1.3923,-1.3876,-1.3825,-1.378,-1.376,-1.3752,-1.3775,-1.3732,-1.3737,-1.3741,-1.3832,-1.3846,-1.3859,0,0,0,0,0,0,-1.4213,-1.4132,-1.4097,-1.4105,-1.4069,-1.3999,-1.4009,-1.3964,-1.3935,-1.3928,-1.3852,-1.3838,-1.384,-1.3807,-1.3786,-1.3798,-1.3748,-1.3752,-1.382,-1.3833,-1.3844,-1.3852,-1.3706,0,0,0,0,0,-1.4236,-1.4224,-1.4153,-1.4167,-1.4151,-1.4084,-1.407,-1.4027,-1.3985,-1.3968,-1.3921,-1.3881,-1.3857,-1.3843,-1.3818,-1.3832,-1.3815,-1.3843,-1.3855,-1.3864,-1.3868,-1.3871,-1.3883,-1.3759,-1.3759,-1.3759,0,0,-1.4283,-1.4237,-1.4234,-1.4186,-1.4152,-1.414,-1.4071,-1.4061,-1.4051,-1.3966,-1.3957,-1.3921,-1.3871,-1.3875,-1.3874,-1.3847,-1.3898,-1.387,-1.3879,-1.3877,-1.3877,-1.3889,-1.39,-1.3763,-1.3762,-1.3762,0,0,-1.4363,-1.4328,-1.4335,-1.4303,-1.4254,-1.4209,-1.4211,-1.4147,-1.412,-1.4111,-1.4047,-1.4033,-1.3995,-1.3962,-1.394,-1.4008,-1.3959,-1.4001,-1.406,-1.4064,-1.4074,-1.4082,-1.4105,-1.4114,-1.4005,-1.4005,-1.4006,0,-1.4428,-1.4408,-1.4345,-1.4339,-1.4319,-1.4244,-1.425,-1.4221,-1.4165,-1.4153,-1.4124,-1.4074,-1.4035,-1.4029,-1.4046,-1.4031,-1.403,-1.4008,-1.4078,-1.4085,-1.4092,-1.4113,-1.4122,-1.4011,-1.401,-1.401,-1.4009,0,-1.449,-1.4477,-1.4489,-1.4439,-1.442,-1.442,-1.4355,-1.4344,-1.4302,-1.426,-1.425,-1.4201,-1.4164,-1.416,-1.4118,-1.4148,-1.4133,-1.4092,-1.404,-1.411,-1.4129,-1.4137,-1.4018,-1.4017,-1.4015,-1.4014,0,0,-1.463,-1.4544,-1.4549,-1.4525,-1.4465,-1.4453,-1.4449,-1.4414,-1.4406,-1.437,-1.4364,-1.4333,-1.4295,-1.427,-1.4225,-1.4229,-1.4284,-1.4187,-1.4184,-1.4206,-1.4312,-1.4343,-1.4353,-1.4252,-1.4253,-1.4254,-1.4316,0,-1.4699,-1.4689,-1.4631,-1.4638,-1.4624,-1.4552,-1.4549,-1.4511,-1.4471,-1.4453,-1.4408,-1.4388,-1.434,-1.4324,-1.4325,-1.4277,-1.4304,-1.4272,-1.4244,-1.4244,-1.4258,-1.4363,-1.4395,-1.4456,-1.4323,-1.4324,-1.4325,0,-1.4778,-1.4748,-1.4754,-1.4693,-1.4685,-1.4683,-1.4646,-1.463,-1.4585,-1.4556,-1.4529,-1.4477,-1.4468,-1.4421,-1.4405,-1.4385,-1.437,-1.4345,-1.4345,-1.434,-1.4288,-1.4359,-1.4474,-1.4483,-1.4336,-1.4335,-1.4334,0,-1.4878,-1.4839,-1.4837,-1.4819,-1.4748,-1.4748,-1.4719,-1.4671,-1.4654,-1.4621,-1.4609,-1.4575,-1.4556,-1.453,-1.4471,-1.4442,-1.4462,-1.441,-1.4436,-1.4438,-1.4443,-1.4443,-1.4556,-1.4435,-1.4435,-1.4435,-1.4435,0,-1.4961,-1.4967,-1.4881,-1.488,-1.4884,-1.4818,-1.4823,-1.4786,-1.4745,-1.4734,-1.4669,-1.466,-1.4582,-1.4564,-1.4517,-1.4511,-1.4503,-1.4478,-1.4465,-1.4483,-1.4486,-1.4472,-1.4465,-1.4437,-1.4436,-1.4436,-1.4436,0,-1.5074,-1.5017,-1.501,-1.4944,-1.4927,-1.4933,-1.4876,-1.4871,-1.4828,-1.4815,-1.4808,-1.4739,-1.4714,-1.4652,-1.461,-1.4579,-1.4585,-1.4562,-1.4601,-1.4592,-1.4622,-1.462,-1.4728,-1.4738,-1.4613,-1.4614,-1.4615,0,-1.513,-1.5133,-1.5067,-1.5056,-1.503,-1.5012,-1.4994,-1.4928,-1.4912,-1.486,-1.4862,-1.4832,-1.4804,-1.4767,-1.4712,-1.468,-1.4655,-1.4695,-1.465,-1.4668,-1.4654,-1.4655,-1.4654,-1.4705,-1.4707,-1.4708,-1.471,0,-1.5235,-1.5207,-1.5184,-1.5152,-1.5133,-1.5104,-1.5071,-1.5065,-1.499,-1.4975,-1.4949,-1.4928,-1.4886,-1.4857,-1.4816,-1.4783,-1.4734,-1.4725,-1.4729,-1.4747,-1.4769,-1.4756,-1.4627,-1.4722,-1.4721,-1.472,-1.4719,-1.4719,-1.532,-1.532,-1.5274,-1.525,-1.5219,-1.519,-1.5182,-1.5138,-1.5116,-1.5077,-1.5039,-1.5017,-1.497,-1.491,-1.4881,-1.4862,-1.4836,-1.4843,-1.4844,-1.4846,-1.4854,-1.4773,-1.4854,-1.4853,-1.4853,-1.4853,-1.4852,0,-1.5422,-1.5389,-1.5368,-1.5325,-1.5306,-1.5263,-1.5224,-1.5211,-1.5193,-1.5154,-1.5129,-1.5099,-1.507,-1.5013,-1.4978,-1.4974,-1.495,-1.4967,-1.4966,-1.4959,-1.4879,-1.4879,-1.4986,-1.4986,-1.4986,-1.4986,-1.4986,-1.4986,-1.5472,-1.5468,-1.5435,-1.5414,-1.538,-1.5359,-1.534,-1.5313,-1.5281,-1.5251,-1.5227,-1.5191,-1.5144,-1.5106,-1.5077,-1.5061,-1.5051,-1.5075,-1.5051,-1.4977,-1.4965,-1.4953,-1.4952,-1.5073,-1.5073,-1.5132,-1.5133,-1.5133]},{"header":{"parameterUnit":"m.s-1","parameterCategory":1,"la1":30.2991,"la2":30.254,"lo1":-89.0895,"lo2":-89.0444,"dy":0.0017,"dx":0.0017,"nx":28,"ny":28,"refTime":"2024-04-23T21:00:00:Z","depth":0,"parameterNumber":3,"parameterNumberName":"V-component_of_WINDS"},"data":[0,0,0,0,0,0,0,0,0,0,0,0,0,0,0,0,0,0,0,0,0,0,0,0,0,0,0,0,0,0,0,0,0,0,0,0,0,0,0,0,0,0,0,0,0,0,0,0,0,0,0,0,0,0,0,0,0,0,1.913,1.913,0,1.9153,1.9153,1.9153,1.9217,1.9219,1.922,1.9221,1.924,1.924,1.9239,0,0,0,0,0,0,0,0,0,0,0,0,0,1.9137,1.9137,1.913,1.913,1.913,1.9153,1.9153,1.9153,1.9217,1.9219,1.922,1.9222,1.9241,1.924,1.9239,0,0,0,0,0,0,0,0,0,0,0,0,0,1.9144,1.9136,1.913,1.9165,1.9168,1.9153,1.9153,1.9153,1.9217,1.9219,1.9221,1.9223,1.9241,1.924,1.9239,1.919,0,0,1.9235,1.9235,0,0,0,0,0,0,0,0,1.9144,1.9144,1.9159,1.9162,1.9166,1.9184,1.9163,1.9165,1.9216,1.9198,1.9221,1.9224,1.922,1.922,1.922,1.919,1.9191,1.9235,1.9234,1.9234,1.9233,0,0,0,0,0,0,0,1.9143,1.9143,1.9139,1.9159,1.9164,1.9178,1.9182,1.9164,1.9197,1.92,1.9204,1.9207,1.9222,1.9221,1.9221,1.9192,1.9235,1.9234,1.9233,1.9233,1.9123,1.912,0,0,0,0,0,0,1.9138,1.9142,1.9138,1.9139,1.916,1.9176,1.918,1.9176,1.9197,1.9202,1.9205,1.9209,1.9222,1.9222,1.9222,1.9165,1.9234,1.9233,1.9232,1.9125,1.9122,1.912,0,0,0,0,0,0,1.9138,1.9137,1.9137,1.9142,1.9143,1.9174,1.9169,1.9176,1.9175,1.9201,1.9207,1.9198,1.9224,1.9224,1.9197,1.9167,1.9232,1.9231,1.9127,1.9124,1.9121,1.9052,0,0,0,0,0,0,1.9138,1.9137,1.9119,1.9141,1.9143,1.9113,1.9167,1.9175,1.9173,1.9179,1.9196,1.9201,1.9225,1.9199,1.9196,1.9166,1.923,1.913,1.9126,1.9122,1.9057,1.9047,1.9038,0,0,0,0,0,1.9138,1.9098,1.9118,1.9117,1.9122,1.9111,1.9112,1.9142,1.917,1.9152,1.9169,1.92,1.9171,1.9196,1.9193,1.9163,1.9132,1.9127,1.9122,1.9061,1.9049,1.9038,0,0,0,0,0,0,1.9069,1.9101,1.9124,1.909,1.9098,1.9122,1.91,1.9128,1.9126,1.9132,1.9168,1.9172,1.914,1.9149,1.9176,1.9116,1.9157,1.9151,1.9111,1.9099,1.909,1.9088,1.9229,0,0,0,0,0,1.9051,1.9041,1.9069,1.9036,1.9039,1.9069,1.9065,1.9088,1.9097,1.91,1.9115,1.9121,1.9113,1.9107,1.9101,1.9059,1.9063,1.9037,1.9027,1.9019,1.9013,1.8991,1.8979,1.9103,1.9103,1.9103,0,0,1.9011,1.9027,1.9019,1.9023,1.9031,1.9019,1.9071,1.9055,1.9046,1.9097,1.9073,1.9085,1.9094,1.9059,1.9045,1.9066,1.898,1.9013,1.9006,1.9005,1.8985,1.8973,1.8962,1.91,1.91,1.9101,0,0,1.8933,1.8944,1.8918,1.8926,1.8939,1.896,1.8953,1.8974,1.8984,1.8961,1.8999,1.8988,1.8974,1.8979,1.8979,1.8904,1.8932,1.8901,1.885,1.8828,1.8818,1.8809,1.8781,1.8771,1.8895,1.8895,1.8895,0,1.8881,1.8865,1.8901,1.8884,1.8884,1.8931,1.8904,1.891,1.8919,1.8918,1.8942,1.8926,1.8935,1.8902,1.8884,1.8883,1.8876,1.8898,1.8817,1.8808,1.8801,1.8775,1.8764,1.8891,1.8891,1.8892,1.8892,0,1.8801,1.879,1.8767,1.8777,1.8775,1.8752,1.8783,1.8777,1.88,1.8818,1.8793,1.8807,1.8805,1.8799,1.8821,1.8769,1.8781,1.881,1.8852,1.8785,1.876,1.8751,1.8885,1.8887,1.8888,1.8889,0,0,1.8678,1.8709,1.87,1.8705,1.8723,1.8714,1.8694,1.8694,1.8687,1.8692,1.8675,1.8663,1.869,1.8691,1.8714,1.8695,1.8633,1.8726,1.8727,1.8707,1.8575,1.8552,1.854,1.8652,1.8651,1.8649,1.8574,0,1.8603,1.8572,1.8604,1.8565,1.8554,1.8599,1.8582,1.859,1.8606,1.8598,1.8616,1.8606,1.8643,1.8644,1.8627,1.8644,1.8606,1.865,1.8635,1.8634,1.863,1.8527,1.8503,1.8431,1.8565,1.8563,1.8562,0,1.8511,1.8514,1.8474,1.8495,1.8492,1.8476,1.8478,1.847,1.8481,1.8494,1.8495,1.8524,1.8504,1.8546,1.8519,1.8547,1.8544,1.8551,1.8549,1.8547,1.8593,1.8522,1.8409,1.8398,1.8548,1.8549,1.855,0,1.8424,1.8418,1.8393,1.8396,1.8421,1.8408,1.8417,1.843,1.8428,1.8429,1.8428,1.8426,1.8425,1.8423,1.845,1.8478,1.8419,1.8463,1.8428,1.8427,1.8412,1.8412,1.8296,1.8412,1.8412,1.8412,1.8412,0,1.8336,1.831,1.8355,1.8339,1.8311,1.8348,1.8318,1.8332,1.8343,1.8331,1.837,1.8357,1.8395,1.8385,1.8406,1.838,1.8379,1.8388,1.8394,1.8384,1.8382,1.8381,1.8386,1.8409,1.841,1.841,1.8411,0,1.8233,1.8263,1.8239,1.8264,1.827,1.8248,1.8269,1.8255,1.8275,1.8258,1.8256,1.8286,1.8277,1.8305,1.83,1.8314,1.8275,1.829,1.8272,1.8276,1.8239,1.8241,1.8116,1.81,1.8227,1.8226,1.8225,0,1.8174,1.8155,1.8179,1.8175,1.8182,1.8174,1.8172,1.8207,1.8204,1.8215,1.8199,1.8194,1.8192,1.8175,1.8195,1.8191,1.8205,1.8162,1.8205,1.8195,1.8203,1.8203,1.8201,1.8152,1.815,1.8149,1.8148,0,1.8066,1.8082,1.8079,1.808,1.8078,1.808,1.8086,1.8079,1.8117,1.8111,1.8103,1.8101,1.8097,1.8091,1.8092,1.81,1.8129,1.8135,1.8126,1.8115,1.8105,1.8109,1.8246,1.8137,1.8138,1.8139,1.8139,1.814,1.7983,1.7968,1.7983,1.7978,1.7986,1.799,1.7979,1.7997,1.7992,1.7992,1.8013,1.8001,1.8012,1.8017,1.8022,1.8012,1.8032,1.802,1.8017,1.8013,1.8006,1.8108,1.8013,1.8013,1.8013,1.8014,1.8014,0,1.7876,1.7888,1.7883,1.789,1.7886,1.7917,1.7924,1.7918,1.7907,1.7916,1.7913,1.7904,1.7898,1.7919,1.7916,1.7904,1.7917,1.7901,1.7902,1.7903,1.7989,1.7996,1.7891,1.7891,1.7891,1.7891,1.7891,1.7891,1.782,1.7796,1.7814,1.7794,1.7807,1.7796,1.7797,1.7801,1.7808,1.7797,1.7793,1.7807,1.782,1.7818,1.7814,1.782,1.7816,1.7796,1.7806,1.7885,1.7897,1.7909,1.7915,1.7795,1.7795,1.7722,1.7721,1.772]}]]